This is the latest recevied weather packets stored in our database for station/object N5GMJ. If no packets are shown the sender has not sent any weather packets the latest 10 day(s).
| Time | Temp. | Humidity | Pressure | Rain* | Wind** | Luminosity | Snow |
|---|---|---|---|---|---|---|---|
| 1787665931 | 25.56° C | 69% | 1018.8 hPa | 0 mm | - | - | - |
| 1787665626 | 25.56° C | 70% | 1018.9 hPa | 0 mm | - | - | - |
| 1787665326 | 25.56° C | 70% | 1018.9 hPa | 0 mm | - | - | - |
| 1787665022 | 25.56° C | 70% | 1019.1 hPa | 0 mm | - | - | - |
| 1787664719 | 25.56° C | 70% | 1019.1 hPa | 0 mm | - | - | - |
| 1787664418 | 25.56° C | 68% | 1019 hPa | 0 mm | - | - | - |
| 1787664114 | 25.56° C | 67% | 1019 hPa | 0 mm | - | - | - |
| 1787663813 | 26.11° C | 66% | 1019 hPa | 0 mm | - | - | - |
| 1787663508 | 25.56° C | 67% | 1018.8 hPa | 0 mm | - | - | - |
| 1787663204 | 25.56° C | 65% | 1018.6 hPa | 0 mm | - | - | - |
| 1787662900 | 23.89° C | 71% | 1018.6 hPa | 0 mm | - | - | - |
| 1787662599 | 24.44° C | 69% | 1018.3 hPa | 0 mm | - | - | - |
| 1787662295 | 25.56° C | 61% | 1018 hPa | 0 mm | - | - | - |
| 1787661991 | 25.56° C | 56% | 1017.5 hPa | 0 mm | - | - | - |
| 1787661687 | 26.11° C | 55% | 1017.4 hPa | 0 mm | - | - | - |
| 1787661385 | 26.11° C | 55% | 1016.9 hPa | 0 mm | - | - | - |
| 1787661084 | 26.11° C | 55% | 1016.9 hPa | 0 mm | - | - | - |
| 1787660779 | 26.11° C | 54% | 1016.7 hPa | 0 mm | - | - | - |
| 1787660479 | 25.56° C | 55% | 1016.5 hPa | 0 mm | - | - | - |
| 1787660179 | 26.11° C | 54% | 1016.7 hPa | 0 mm | - | - | - |
| 1787659874 | 25.56° C | 55% | 1016.8 hPa | 0 mm | - | - | - |
| 1787659571 | 25.56° C | 56% | 1016.5 hPa | 0 mm | - | - | - |
| 1787659268 | 25.56° C | 55% | 1016.3 hPa | 0 mm | - | - | - |
| 1787658967 | 25.56° C | 55% | 1016.3 hPa | 0 mm | - | - | - |
| 1787658667 | 25.56° C | 56% | 1016.2 hPa | 0 mm | - | - | - |
* Rain latest hour (hover to see other rain measurements)
** Current wind speed in m/s (hover to see current wind gust speed)